Tracking 25710 objects as of 6-Jul-2022
HD Live streaming from Space Station
objects crossing your sky now

FENGYUN 1C DEB

Track FENGYUN 1C DEB now!
10-day predictions


NORAD ID: 32142
Int'l Code: 1999-025CSL
Perigee: 750.3 km
Apogee: 787.8 km
Inclination: 98.9 °
Period: 100.1 minutes
Semi major axis: 7140 km
RCS: 0.003 m2 (small)
Launch date: May 10, 1999
Source: People's Republic of China (PRC)
Launch site: Taiyaun Space Center, China (TSC)

Note: This is SATELLITE DEBRIS
aabbcc
Your satellite tracking list
Your tracking list is empty




NASA's NSSDC Master Catalog

Two Line Element Set (TLE):
1 32142U 99025CSL 22185.08541186  .00003951  00000-0  12908-2 0  9998
2 32142  98.8745 309.4021 0026282 195.6091 164.4287 14.38961024786578
Source of the keplerian elements: AFSPC